Time,TemperatureF,DewpointF,PressureIn,WindDirection,WindDirectionDegrees,WindSpeedMPH,WindSpeedGustMPH,Humidity,HourlyPrecipIn,Conditions,Clouds,dailyrainin,SoftwareType,DateUTC
2013-01-07 00:00:00,24.0,-99.9,-100.00,ENE,63,18.0,24.0,-999,0.02,,,0.09,,2013-01-07 09:00:00,
2013-01-07 00:33:00,24.0,-99.9,-100.00,ENE,63,18.0,24.0,-999,0.02,,,0.09,,2013-01-07 09:33:00,
2013-01-07 00:43:00,24.0,-99.9,-100.00,ENE,63,18.0,24.0,-999,0.02,,,0.09,,2013-01-07 09:43:00,
2013-01-07 00:53:00,24.0,-99.9,-100.00,ENE,63,18.0,24.0,-999,0.02,,,0.09,,2013-01-07 09:53:00,
2013-01-07 01:00:00,25.0,-99.9,-100.00,NE,39,29.0,40.0,-999,0.00,,,0.09,,2013-01-07 10:00:00,
2013-01-07 01:33:00,25.0,-99.9,-100.00,NE,39,29.0,40.0,-999,0.00,,,0.09,,2013-01-07 10:33:00,
2013-01-07 01:43:00,25.0,-99.9,-100.00,NE,39,29.0,40.0,-999,0.00,,,0.09,,2013-01-07 10:43:00,
2013-01-07 01:53:00,25.0,-99.9,-100.00,NE,39,29.0,40.0,-999,0.00,,,0.09,,2013-01-07 10:53:00,
2013-01-07 02:00:00,25.0,-99.9,-100.00,NE,54,30.0,39.0,-999,0.00,,,0.09,,2013-01-07 11:00:00,
2013-01-07 02:33:00,25.0,-99.9,-100.00,NE,54,30.0,39.0,-999,0.00,,,0.09,,2013-01-07 11:33:00,
2013-01-07 02:43:00,25.0,-99.9,-100.00,NE,54,30.0,39.0,-999,0.00,,,0.09,,2013-01-07 11:43:00,
2013-01-07 02:53:00,25.0,-99.9,-100.00,NE,54,30.0,39.0,-999,0.00,,,0.09,,2013-01-07 11:53:00,
2013-01-07 03:00:00,24.0,-99.9,-100.00,NE,52,23.0,33.0,-999,0.01,,,0.09,,2013-01-07 12:00:00,
2013-01-07 03:33:00,24.0,-99.9,-100.00,NE,52,23.0,33.0,-999,0.01,,,0.09,,2013-01-07 12:33:00,
2013-01-07 03:43:00,24.0,-99.9,-100.00,NE,52,23.0,33.0,-999,0.01,,,0.09,,2013-01-07 12:43:00,
2013-01-07 03:53:00,24.0,-99.9,-100.00,NE,52,23.0,33.0,-999,0.01,,,0.09,,2013-01-07 12:53:00,
2013-01-07 04:00:00,25.0,-99.9,-100.00,ENE,60,28.0,33.0,-999,0.00,,,0.09,,2013-01-07 13:00:00,
2013-01-07 04:33:00,25.0,-99.9,-100.00,ENE,60,28.0,33.0,-999,0.00,,,0.09,,2013-01-07 13:33:00,
2013-01-07 04:43:00,25.0,-99.9,-100.00,ENE,60,28.0,33.0,-999,0.00,,,0.09,,2013-01-07 13:43:00,
2013-01-07 04:53:00,25.0,-99.9,-100.00,ENE,60,28.0,33.0,-999,0.00,,,0.09,,2013-01-07 13:53:00,
2013-01-07 05:00:00,25.0,-99.9,-100.00,ENE,57,24.0,34.0,-999,0.01,,,0.10,,2013-01-07 14:00:00,
2013-01-07 05:33:00,25.0,-99.9,-100.00,ENE,57,24.0,34.0,-999,0.01,,,0.10,,2013-01-07 14:33:00,
2013-01-07 05:43:00,25.0,-99.9,-100.00,ENE,57,24.0,34.0,-999,0.01,,,0.10,,2013-01-07 14:43:00,
2013-01-07 05:53:00,25.0,-99.9,-100.00,ENE,57,24.0,34.0,-999,0.01,,,0.10,,2013-01-07 14:53:00,
2013-01-07 06:00:00,25.0,-99.9,-100.00,NE,51,20.0,30.0,-999,0.00,,,0.10,,2013-01-07 15:00:00,
2013-01-07 06:33:00,25.0,-99.9,-100.00,NE,51,20.0,30.0,-999,0.00,,,0.10,,2013-01-07 15:33:00,
2013-01-07 06:43:00,25.0,-99.9,-100.00,NE,51,20.0,30.0,-999,0.00,,,0.10,,2013-01-07 15:43:00,
2013-01-07 06:53:00,25.0,-99.9,-100.00,NE,51,20.0,30.0,-999,0.00,,,0.10,,2013-01-07 15:53:00,
2013-01-07 07:00:00,25.0,-99.9,-100.00,ENE,66,23.0,30.0,-999,0.00,,,0.10,,2013-01-07 16:00:00,
2013-01-07 07:33:00,25.0,-99.9,-100.00,ENE,66,23.0,30.0,-999,0.00,,,0.10,,2013-01-07 16:33:00,
2013-01-07 07:43:00,25.0,-99.9,-100.00,ENE,66,23.0,30.0,-999,0.00,,,0.10,,2013-01-07 16:43:00,
2013-01-07 07:53:00,25.0,-99.9,-100.00,ENE,66,23.0,30.0,-999,0.00,,,0.10,,2013-01-07 16:53:00,
2013-01-07 08:00:00,26.0,-99.9,-100.00,NE,40,24.0,31.0,-999,0.01,,,0.11,,2013-01-07 17:00:00,
2013-01-07 08:33:00,26.0,-99.9,-100.00,NE,40,24.0,31.0,-999,0.01,,,0.11,,2013-01-07 17:33:00,
2013-01-07 08:43:00,26.0,-99.9,-100.00,NE,40,24.0,31.0,-999,0.01,,,0.11,,2013-01-07 17:43:00,
2013-01-07 08:53:00,26.0,-99.9,-100.00,NE,40,24.0,31.0,-999,0.01,,,0.11,,2013-01-07 17:53:00,
2013-01-07 09:00:00,25.0,-99.9,-100.00,NE,51,30.0,37.0,-999,0.02,,,0.13,,2013-01-07 18:00:00,
2013-01-07 09:33:00,25.0,-99.9,-100.00,NE,51,30.0,37.0,-999,0.02,,,0.13,,2013-01-07 18:33:00,
2013-01-07 09:43:00,25.0,-99.9,-100.00,NE,51,30.0,37.0,-999,0.02,,,0.13,,2013-01-07 18:43:00,
2013-01-07 09:53:00,25.0,-99.9,-100.00,NE,51,30.0,37.0,-999,0.02,,,0.13,,2013-01-07 18:53:00,
2013-01-07 10:00:00,25.0,-99.9,-100.00,NE,44,32.0,41.0,-999,0.00,,,0.12,,2013-01-07 19:00:00,
2013-01-07 10:33:00,25.0,-99.9,-100.00,NE,44,32.0,41.0,-999,0.00,,,0.12,,2013-01-07 19:33:00,
2013-01-07 10:43:00,25.0,-99.9,-100.00,NE,44,32.0,41.0,-999,0.00,,,0.12,,2013-01-07 19:43:00,
2013-01-07 10:53:00,25.0,-99.9,-100.00,NE,44,32.0,41.0,-999,0.00,,,0.12,,2013-01-07 19:53:00,
2013-01-07 11:00:00,25.0,-99.9,-100.00,NE,48,32.0,44.0,-999,0.01,,,0.13,,2013-01-07 20:00:00,
2013-01-07 11:33:00,25.0,-99.9,-100.00,NE,48,32.0,44.0,-999,0.01,,,0.13,,2013-01-07 20:33:00,
2013-01-07 11:43:00,25.0,-99.9,-100.00,NE,48,32.0,44.0,-999,0.01,,,0.13,,2013-01-07 20:43:00,
2013-01-07 11:53:00,25.0,-99.9,-100.00,NE,48,32.0,44.0,-999,0.01,,,0.13,,2013-01-07 20:53:00,
2013-01-07 12:00:00,25.0,-99.9,-100.00,NE,37,35.0,42.0,-999,0.01,,,0.14,,2013-01-07 21:00:00,
2013-01-07 12:33:00,25.0,-99.9,-100.00,NE,37,35.0,42.0,-999,0.01,,,0.14,,2013-01-07 21:33:00,
2013-01-07 12:43:00,25.0,-99.9,-100.00,NE,37,35.0,42.0,-999,0.01,,,0.14,,2013-01-07 21:43:00,
2013-01-07 12:53:00,25.0,-99.9,-100.00,NE,37,35.0,42.0,-999,0.01,,,0.14,,2013-01-07 21:53:00,
2013-01-07 13:00:00,26.0,-99.9,-100.00,NNE,33,29.0,40.0,-999,0.01,,,0.15,,2013-01-07 22:00:00,
2013-01-07 13:33:00,26.0,-99.9,-100.00,NNE,33,29.0,40.0,-999,0.01,,,0.15,,2013-01-07 22:33:00,
2013-01-07 13:43:00,26.0,-99.9,-100.00,NNE,33,29.0,40.0,-999,0.01,,,0.15,,2013-01-07 22:43:00,
2013-01-07 13:53:00,26.0,-99.9,-100.00,NNE,33,29.0,40.0,-999,0.01,,,0.15,,2013-01-07 22:53:00,
2013-01-07 14:00:00,26.0,-99.9,-100.00,NNE,32,26.0,33.0,-999,0.00,,,0.15,,2013-01-07 23:00:00,
2013-01-07 14:33:00,26.0,-99.9,-100.00,NNE,32,26.0,33.0,-999,0.00,,,0.15,,2013-01-07 23:33:00,
2013-01-07 14:43:00,26.0,-99.9,-100.00,NNE,32,26.0,33.0,-999,0.00,,,0.15,,2013-01-07 23:43:00,
2013-01-07 14:53:00,26.0,-99.9,-100.00,NNE,32,26.0,33.0,-999,0.00,,,0.15,,2013-01-07 23:53:00,
2013-01-07 15:00:00,25.0,-99.9,-100.00,ENE,58,31.0,37.0,-999,0.02,,,0.16,,2013-01-08 00:00:00,
2013-01-07 15:33:00,25.0,-99.9,-100.00,ENE,58,31.0,37.0,-999,0.02,,,0.16,,2013-01-08 00:33:00,
2013-01-07 15:43:00,25.0,-99.9,-100.00,ENE,58,31.0,37.0,-999,0.02,,,0.16,,2013-01-08 00:43:00,
2013-01-07 15:53:00,25.0,-99.9,-100.00,ENE,58,31.0,37.0,-999,0.02,,,0.16,,2013-01-08 00:53:00,
2013-01-07 16:00:00,25.0,-99.9,-100.00,NE,51,31.0,41.0,-999,0.00,,,0.16,,2013-01-08 01:00:00,
2013-01-07 16:33:00,25.0,-99.9,-100.00,NE,51,31.0,41.0,-999,0.00,,,0.16,,2013-01-08 01:33:00,
2013-01-07 16:43:00,25.0,-99.9,-100.00,NE,51,31.0,41.0,-999,0.00,,,0.16,,2013-01-08 01:43:00,
2013-01-07 16:53:00,25.0,-99.9,-100.00,NE,51,31.0,41.0,-999,0.00,,,0.16,,2013-01-08 01:53:00,
2013-01-07 17:00:00,25.0,-99.9,-100.00,NE,46,34.0,48.0,-999,0.00,,,0.14,,2013-01-08 02:00:00,
2013-01-07 17:33:00,25.0,-99.9,-100.00,NE,46,34.0,48.0,-999,0.00,,,0.14,,2013-01-08 02:33:00,
2013-01-07 17:43:00,25.0,-99.9,-100.00,NE,46,34.0,48.0,-999,0.00,,,0.14,,2013-01-08 02:43:00,
2013-01-07 17:53:00,25.0,-99.9,-100.00,NE,46,34.0,48.0,-999,0.00,,,0.14,,2013-01-08 02:53:00,
2013-01-07 18:00:00,25.0,-99.9,-100.00,NE,48,36.0,49.0,-999,0.00,,,0.13,,2013-01-08 03:00:00,
2013-01-07 18:33:00,25.0,-99.9,-100.00,NE,48,36.0,49.0,-999,0.00,,,0.13,,2013-01-08 03:33:00,
2013-01-07 18:43:00,25.0,-99.9,-100.00,NE,48,36.0,49.0,-999,0.00,,,0.13,,2013-01-08 03:43:00,
2013-01-07 18:53:00,25.0,-99.9,-100.00,NE,48,36.0,49.0,-999,0.00,,,0.13,,2013-01-08 03:53:00,
2013-01-07 19:00:00,26.0,-99.9,-100.00,NE,38,37.0,50.0,-999,0.00,,,0.12,,2013-01-08 04:00:00,
2013-01-07 19:33:00,26.0,-99.9,-100.00,NE,38,37.0,50.0,-999,0.00,,,0.12,,2013-01-08 04:33:00,
2013-01-07 19:43:00,26.0,-99.9,-100.00,NE,38,37.0,50.0,-999,0.00,,,0.12,,2013-01-08 04:43:00,
2013-01-07 19:52:00,26.0,-99.9,-100.00,NE,38,37.0,50.0,-999,0.00,,,0.12,,2013-01-08 04:52:00,
2013-01-07 20:00:00,25.0,-99.9,-100.00,NE,40,38.0,42.0,-999,0.00,,,0.12,,2013-01-08 05:00:00,
2013-01-07 20:33:00,25.0,-99.9,-100.00,NE,40,38.0,42.0,-999,0.00,,,0.12,,2013-01-08 05:33:00,
2013-01-07 20:43:00,25.0,-99.9,-100.00,NE,40,38.0,42.0,-999,0.00,,,0.12,,2013-01-08 05:43:00,
2013-01-07 20:53:00,25.0,-99.9,-100.00,NE,40,38.0,42.0,-999,0.00,,,0.12,,2013-01-08 05:53:00,
2013-01-07 21:00:00,25.0,-99.9,-100.00,NE,41,38.0,43.0,-999,0.00,,,0.12,,2013-01-08 06:00:00,
2013-01-07 21:33:00,25.0,-99.9,-100.00,NE,41,38.0,43.0,-999,0.00,,,0.12,,2013-01-08 06:33:00,
2013-01-07 21:43:00,25.0,-99.9,-100.00,NE,41,38.0,43.0,-999,0.00,,,0.12,,2013-01-08 06:43:00,
2013-01-07 21:53:00,25.0,-99.9,-100.00,NE,41,38.0,43.0,-999,0.00,,,0.12,,2013-01-08 06:53:00,
2013-01-07 22:00:00,25.0,-99.9,-100.00,NE,47,35.0,40.0,-999,0.02,,,0.14,,2013-01-08 07:00:00,
2013-01-07 22:32:00,25.0,-99.9,-100.00,NE,47,35.0,40.0,-999,0.02,,,0.14,,2013-01-08 07:32:00,
2013-01-07 22:42:00,25.0,-99.9,-100.00,NE,47,35.0,40.0,-999,0.02,,,0.14,,2013-01-08 07:42:00,
2013-01-07 22:53:00,25.0,-99.9,-100.00,NE,47,35.0,40.0,-999,0.02,,,0.14,,2013-01-08 07:53:00,
2013-01-07 23:00:00,25.0,-99.9,-100.00,NE,40,32.0,35.0,-999,0.01,,,0.15,,2013-01-08 08:00:00,
2013-01-07 23:33:00,25.0,-99.9,-100.00,NE,40,32.0,35.0,-999,0.01,,,0.15,,2013-01-08 08:33:00,
2013-01-07 23:42:00,25.0,-99.9,-100.00,NE,40,32.0,35.0,-999,0.01,,,0.15,,2013-01-08 08:42:00,
2013-01-07 23:53:00,25.0,-99.9,-100.00,NE,40,32.0,35.0,-999,0.01,,,0.15,,2013-01-08 08:53:00,